Location: Newark
(6.1731°S, 35.7419°E)
Time: 15:25:33
(UTC+00:00)

Vanguard 1 - Visible Passes

Search period start: 26 February 2020 00:00
Search period end: 07 March 2020 00:00
Orbit: 650 x 3833 km, 34.2° (Epoch: 25 February)

Date Brightness Start Highest point End Pass type
(mag) Time Alt. Az. Time Alt. Az. Time Alt. Az.
26 Feb 12.3 00:14:06 70° S 00:15:55 73° SE 00:39:14 10° ENE visible
26 Feb 13.0 02:26:56 17° WSW 02:43:01 53° NW 03:05:24 10° NE visible
26 Feb 13.6 22:22:24 21° E 22:22:24 21° E 22:29:07 10° E visible
27 Feb 12.2 00:35:14 77° SW 00:37:24 88° SE 01:01:09 10° NE visible
27 Feb 13.2 02:48:04 13° W 03:05:02 42° NW 03:26:08 10° NNE visible
27 Feb 13.4 22:43:24 28° E 22:43:24 28° E 22:52:36 10° ENE visible
28 Feb 12.2 00:56:13 69° W 00:58:58 76° NW 01:22:41 10° NE visible
28 Feb 13.4 03:09:36 10° W 03:27:19 33° NNW 03:46:44 10° NNE visible
28 Feb 13.2 23:04:15 35° E 23:04:15 35° E 23:15:30 10° ENE visible
29 Feb 12.4 01:17:02 56° WNW 01:20:41 62° NW 01:43:57 10° NE visible
29 Feb 13.0 23:24:56 42° ENE 23:24:56 42° ENE 23:37:54 10° ENE visible
01 Mar 12.6 01:37:43 44° WNW 01:42:36 50° NW 02:04:58 10° NE visible
01 Mar 12.9 23:45:28 48° NE 23:45:28 48° NE 23:59:51 10° NE visible
02 Mar 12.8 01:58:15 33° WNW 02:04:44 40° NNW 02:25:49 10° NNE visible
03 Mar 12.8 00:05:52 51° NNE 00:05:52 51° NNE 00:21:27 10° NE visible
03 Mar 13.1 02:18:38 24° WNW 02:27:09 31° NNW 02:46:33 10° NNE visible
03 Mar 14.0 22:13:24 11° ENE 22:13:24 11° ENE 22:14:02 10° ENE visible
04 Mar 12.8 00:26:09 49° N 00:26:09 49° N 00:42:45 10° NE visible
04 Mar 13.3 02:38:54 16° WNW 02:49:55 25° NNW 03:07:11 10° NNE visible
04 Mar 13.9 22:33:33 16° ENE 22:33:33 16° ENE 22:36:23 10° ENE visible
05 Mar 12.8 00:46:18 43° N 00:46:18 43° N 01:03:48 10° NE visible
05 Mar 13.6 02:59:44 10° WNW 03:13:06 19° NNW 03:27:51 10° NNE visible
05 Mar 13.7 22:53:37 20° NE 22:53:37 20° NE 22:58:18 10° NE visible
06 Mar 13.0 01:06:20 36° NNW 01:06:20 36° NNW 01:24:43 10° NNE visible
06 Mar 13.8 03:25:24 10° NW 03:36:46 16° NNW 03:48:38 10° NNE visible
06 Mar 13.6 23:13:34 23° NE 23:13:34 23° NE 23:19:52 10° NE visible
